sat.trackr.live / text

‹ back to catalog

COSMOS 2585 (RODNIK-S *)

NORAD 63288 · 2025-054A

PAYLOAD ACTIVE UNKNOWN

§ Identity

Operator
Country
CIS
Launch date
2025-03-16
Launch site
PLMSC
Launch vehicle
Mass (kg)
RCS (m²)

External: N2YO · Heavens-Above · Gunter

§ Orbital elements

Epoch: 2026-09-20T20:26:33.651168Z

Period
115.86 min
Inclination
82.4985°
Eccentricity
0.0024758
Mean motion
12.42871105 rev/d
Perigee alt
1,475.0 km
Apogee alt
1,513.9 km
Semi-major
7,872.6 km
B*
8.8091e-5
RAAN
19.0835°
Arg perigee
184.4642°
Mean anomaly
175.6220°
Rev number
6,874

§ Raw data

COSMOS 2585 (RODNIK-S *)1 63288U 25054A   26263.85177837  .00000022  00000+0  88091-4 0  99912 63288  82.4985  19.0835 0024758 184.4642 175.6220 12.42871105 68745

JSON: /api/v1/satellites/63288 · /tle

For live sub-satellite position, see the globe view (requires WebGL).

§ Visibility from observer

Set your observer location to see the next 7 days of passes ≥ 10°. The values pass through the URL so the page stays shareable.

No JS? Fill the form by hand. The geolocation button needs JavaScript.